Regional Weather Roundup
Issued by NWS

Home | Current Version | Previous Version | Text Only | Print | Product List | Glossary Off
Versions: 1 2 3 4 5 6 7 8 9 10 11 12 13 14 15 16 17 18 19 20 21 22 23 24 25 26 27 28 29 30 31 32 33 34 35 36 37 38 39 40 41 42 43 44 45 46 47 48 49 50

000
ASUS43 KDTX 310410
RWRMI
MICHIGAN HOURLY REGIONAL WEATHER ROUNDUP
NATIONAL WEATHER SERVICE DETROIT/PONTIAC MI
1200 AM EDT WED AUG 31 2016

NOTE: "FAIR" INDICATES FEW OR NO CLOUDS BELOW 12,000 FEET WITH NO
SIGNIFICANT WEATHER AND/OR OBSTRUCTION TO VISIBILITY.

MIZ047>049-052>055-059>063-066>070-074>076-081>083-310500-
SOUTHEAST LOWER MICHIGAN

CITY           SKY/WX    TMP DP  RH WIND       PRES   REMARKS
ADRIAN         PTCLDY    70  69  97 W6        30.06S
ALMA             N/A     70  70 100 SW3       30.05S FOG
ANN ARBOR      PTCLDY    70  69  97 CALM      30.04F
BAD AXE        CLOUDY    67  66  97 S3        30.03F
CARO           CLOUDY    69  69  99 CALM      30.03S FOG
DETROIT CITY   CLOUDY    75  66  73 S5        30.03F
DETROIT        CLOUDY    74  68  81 SW7       30.04F
FLINT          PTCLDY    72  70  93 CALM      30.04S
GROSSE ILE     MOCLDY    74  68  82 CALM      30.03F
HILLSDALE      MOCLDY    67  66  96 CALM      30.06F
HOWELL         CLOUDY    72  69  90 SW6       30.05S

CITY           SKY/WX    TMP DP  RH WIND       PRES   REMARKS
JACKSON        MOCLDY    70  68  93 CALM      30.06F
LAMBERTVILLE   CLOUDY    72  70  92 CALM      30.04F
LANSING        CLOUDY    71  68  90 SW5       30.05F
LAPEER         FAIR      71  69  94 SE5       30.04S
MASON          CLOUDY    71  67  88 SW5       30.06S
MONROE         CLOUDY    71  70  97 CALM      30.03F
MT. CLEMENS    CLOUDY    72  65  81 S5        30.01F
PONTIAC        CLOUDY    74  68  81 SW7       30.03F
PORT HOPE        N/A     68  66  93 SW5       30.00F
PORT HURON     MOCLDY    66  64  94 CALM      30.03F
TRI CITIES     CLOUDY    71  70  96 W7        30.03S
MIDLAND        FAIR      71  69  94 W5        30.02S
TROY           CLOUDY    77  64  63 SW5       30.05F
SAGINAW HB     CLOUDY    72  68  88 SW6       30.01F
$$
MIZ043>046-050>051-056>058-064>065-071>073-077>080-310500-
SOUTHWEST LOWER MICHIGAN

CITY           SKY/WX    TMP DP  RH WIND       PRES   REMARKS
BATTLE CREEK   CLOUDY    69  69 100 SW6       30.07S
BENTON HARBOR  CLOUDY    73  71  93 CALM      30.05S FOG
BIG RAPIDS     MOCLDY    71  69  96 CALM      30.05S FOG
COLDWATER      CLOUDY    69  69 100 CALM      30.07S
FREMONT        FOG       68  68  98 CALM      30.04S VSB 1/4
HOLLAND        MOCLDY    71  69  93 S5        30.05F
GRAND RAPIDS   CLOUDY    73  69  87 W5        30.05F
IONIA          FAIR      70  68  92 SW3       30.04F
KALAMAZOO      CLOUDY    72  67  84 S7        30.06F
LUDINGTON      CLOUDY    68  68 100 CALM      30.02S FOG
MARSHALL       CLOUDY    70  70  98 CALM      30.06S
MOUNT PLEASANT MOCLDY    72  70  95 W5        30.03S
MUSKEGON       PTCLDY    70  69  97 CALM      30.04S FOG
SOUTH HAVEN    CLOUDY    73  72  98 CALM      30.05S FOG
$$
MIZ016>042-310500-
NORTHERN LOWER MICHIGAN

CITY           SKY/WX    TMP DP  RH WIND       PRES   REMARKS
ALPENA         CLOUDY    62  55  77 NW14      30.06R
BEAVER ISLAND  CLEAR     61  53  74 N5        30.08S
BELLAIRE       CLOUDY    67  63  87 CALM      30.06S
CADILLAC       PTCLDY    67  65  95 CALM      30.06S FOG
CHARLEVOIX     MOCLDY    67  55  67 N9G16     30.10S
FRANKFORT      CLOUDY    68  63  82 NE7       30.06R
GAYLORD        MOCLDY    67  62  84 VRB5      30.08S
GRAYLING       MOCLDY    68  65  92 NW6       30.07S
HARBOR SPRINGS MOCLDY    64  57  76 CALM      30.08R
HOUGHTON LAKE  PTCLDY    65  64  97 N3        30.07R FOG
MANISTEE       MOCLDY    67  66  97 CALM      30.03S FOG
OSCODA         DRIZZLE   68  68  99 N5        30.01F
PELLSTON       PTCLDY    60  54  80 NW7       30.08R
ROGERS CITY    CLOUDY    63  60  90 CALM      30.06F
TRAVERSE CITY  CLOUDY    72  59  63 N10       30.05R
$$
MIZ007>008-015-310500-
EASTERN UPPER MICHIGAN

CITY           SKY/WX    TMP DP  RH WIND       PRES   REMARKS
KINROSS        CLEAR     56  55  97 W6        30.05S
MACKINAC ISLAN CLEAR     60  55  82 NW7       30.07R
NEWBERRY       CLEAR     58  55  89 NW6       30.08R
S. S. MARIE    CLEAR     62  57  83 W7        30.03F
MUNISING         N/A     65  58  78 NW13      30.08S
$$
MIZ004>006-011>014-085-310500-
CENTRAL UPPER MICHIGAN

CITY           SKY/WX    TMP DP  RH WIND       PRES   REMARKS
MANISTIQUE     CLEAR     55  52  92 N5        30.08S
ESCANABA       CLEAR     56  55  97 W3        30.10R
MENOMINEE      CLEAR    N/A N/A N/A NE6       30.11
SAWYER-GWINN   CLEAR     53  49  86 CALM      30.12R
$$
MIZ001>003-009>011-084-310500-
WESTERN UPPER MICHIGAN

CITY           SKY/WX    TMP DP  RH WIND       PRES   REMARKS
IRON MOUNTAIN  CLEAR     56  50  80 N3        30.12R
HOUGHTON       CLEAR     57  53  86 NW6       30.11S
COPPER HARBOR    N/A     64  60  87 VRB5      30.09R
IRONWOOD       CLEAR     54  53  97 CALM      30.16S
$$

ABBREVIATIONS USED IN REMARKS
   TC - TEMPERATURE IN CELSIUS
  WCI - WIND CHILL INDEX
   HX - HEAT INDEX
  VSB - VISIBILITY





USA.gov is the U.S. government's official web portal to all federal, state and local government web resources and services.